User: anonymous
Location: Onan Observatory
(44.8103°N, 93.9397°W)
Time: 05:07:25
(UTC-05:00)
Language:

Iridium 90 - Orbit

View from above orbital plane
View from above orbital plane
View from above satellite
View from above satellite

Ground track
Ground track

The orbit data is extracted from the following two-line orbital elements,

1 27373U 02005B   14263.45049472  .00000435  00000-0  12419-3 0  4896
2 27373 086.4474 048.3520 0004161 108.5624 251.6029 14.42943234667041
Epoch (UTC): 20 September 2014 10:48:42
Eccentricity: 0.0004161
inclination: 86.4474°
perigee height: 746 km
apogee height: 752 km
right ascension of ascending node: 48.3520°
argument of perigee: 108.5624°
revolutions per day: 14.42943234
mean anomaly at epoch: 251.6029°
orbit number at epoch: 66704

The dashed part of the orbit path shows where the satellite is in the earth's shadow,  

DLR